Simultaneous Nadir Overpasses (SNOs) Predictions

Prediction of SNOs between AQUA and NOAA-19 Satellite Orbit:

Table of predicted SNOs for the next 14.0 days since TLE Epoch: 6/14/2019
Index Date (AQUA) Time (AQUA) Lat,Lon (AQUA) SZA (AQUA ) Date (NOAA-19) Time (NOAA-19) Lat,Lon (NOAA-19) SZA (NOAA-19 ) Distance(km) Time Diff (sec)
1 06/16/2019 11:26:07 -80.38, 154.57 121.23 06/16/2019 11:25:19 -80.40, 154.71 121.20 3.49 48
2 06/16/2019 12:15:34 80.40, -37.96 58.81 06/16/2019 12:16:14 80.41, -37.98 58.80 0.73 40
3 06/18/2019 16:59:50 80.38,-108.82 58.72 06/18/2019 16:58:40 80.38,-108.92 58.76 1.90 70
4 06/18/2019 17:49:17 -80.39, 58.73 121.27 06/18/2019 17:49:45 -80.40, 58.64 121.26 2.22 28
5 06/20/2019 23:23:00 80.39, 155.29 58.72 06/20/2019 23:23:05 80.39, 155.26 58.73 0.88 5
6 06/23/2019 04:56:43 -80.37,-107.97 121.30 06/23/2019 04:56:36 -80.39,-108.05 121.27 2.84 7
7 06/25/2019 10:30:25 80.38, -11.50 58.78 06/25/2019 10:29:55 80.38, -11.54 58.80 0.76 30
8 06/25/2019 11:19:52 -80.38, 156.15 121.23 06/25/2019 11:21:00 -80.40, 156.12 121.23 2.65 68
9 06/27/2019 16:04:08 -80.36, 85.28 121.18 06/27/2019 16:03:26 -80.38, 85.14 121.13 3.22 42




NCC Satellite Simultaneous Nadir Overpasses (SNOs) Prediction Service
